Date String (YYYY-MM-DD hh:mm:ss) UTC,Instrument flags,Ambient pressure (hPa),Sample flow (lpm),Bypass flow (lpm),Sample temperature (°C),Ambient temperature (°C),ASC tube jacket temperature (°C),LED temperature (°C),Box temperature (°C),Sample RH (%),Span deviation,Mass concentration (μg/m³),Mass concentration (μg/m³),Mass concentration (μg/m³)
DateTimeUTC,F1_M11,P_M11,Q1_M11,Q2_M11,T1_M11,T2_M11,T3_M11,T4_M11,T5_M11,U1_M11,ZSPAN_M11,X2_M11,X0_M11,X1_M11
2022-04-17 02:00:00,,0819.4,4.99,0.00,28.5,27.7,00.0,37.4,30.3,09.3,0002.2,0011.78,0030.48,0009.38
2022-04-17 02:01:00,,0819.4,4.99,0.00,28.5,27.7,00.0,37.4,30.3,09.3,0001.9,0011.79,0030.48,0009.41
2022-04-17 02:02:00,,0819.4,5.00,0.00,28.5,27.7,00.0,37.4,30.3,09.3,0001.9,0011.87,0031.27,0009.42
2022-04-17 02:03:00,,0819.4,4.99,0.00,28.5,27.7,00.0,37.4,30.3,09.3,0002.2,0011.86,0031.15,0009.41
2022-04-17 02:04:00,,0819.4,5.02,0.00,28.5,27.7,00.0,37.4,30.3,09.3,0001.9,0011.79,0030.00,0009.40
2022-04-17 02:05:00,,0819.4,4.98,0.00,28.5,27.7,00.0,37.4,30.3,09.3,0002.5,0011.74,0029.58,0009.36
2022-04-17 02:06:00,,0819.4,5.00,0.00,28.5,27.7,00.0,37.4,30.3,09.3,0002.6,0011.63,0027.45,0009.31
2022-04-17 02:07:00,,0819.4,5.01,0.00,28.5,27.7,00.0,37.4,30.3,09.3,0002.6,0011.60,0027.07,0009.26
2022-04-17 02:08:00,,0819.5,5.00,0.00,28.5,27.7,00.0,37.4,30.3,09.3,0002.8,0011.46,0027.46,0009.19
2022-04-17 02:09:00,,0819.5,5.00,0.00,28.5,27.7,00.0,37.4,30.3,09.2,0002.3,0011.31,0026.91,0009.10
2022-04-17 02:10:00,,0819.5,5.00,0.00,28.5,27.7,00.0,37.4,30.3,09.2,0001.8,0011.24,0027.35,0009.02
2022-04-17 02:11:00,,0819.5,5.00,0.00,28.5,27.6,00.0,37.4,30.3,09.1,0002.4,0011.08,0027.42,0008.95
2022-04-17 02:12:00,,0819.5,5.01,0.00,28.5,27.6,00.0,37.4,30.3,09.1,0002.2,0010.96,0027.28,0008.88
2022-04-17 02:13:00,,0819.5,5.00,0.00,28.5,27.6,00.0,37.4,30.3,09.1,0001.6,0010.80,0026.68,0008.81
2022-04-17 02:14:00,,0819.5,4.99,0.00,28.5,27.6,00.0,37.4,30.2,09.1,0000.7,0010.73,0026.40,0008.73
2022-04-17 02:15:00,,0819.5,5.00,0.00,28.5,27.6,00.0,37.4,30.2,09.1,0000.2,0010.58,0027.46,0008.64
2022-04-17 02:16:00,,0819.5,5.01,0.00,28.5,27.6,00.0,37.4,30.2,09.1,0000.4,0010.42,0028.76,0008.55
2022-04-17 02:17:00,,0819.5,5.01,0.00,28.5,27.6,00.0,37.4,30.2,09.2,0000.6,0010.35,0029.36,0008.47
2022-04-17 02:18:00,,0819.5,4.98,0.00,28.5,27.6,00.0,37.4,30.2,09.2,0000.7,0010.32,0030.71,0008.41
2022-04-17 02:19:00,,0819.5,4.99,0.00,28.5,27.6,00.0,37.4,30.2,09.3,0000.7,0010.37,0031.82,0008.39
2022-04-17 02:20:00,,0819.6,5.01,0.00,28.5,27.6,00.0,37.4,30.2,09.2,0000.7,0010.42,0032.57,0008.39
2022-04-17 02:21:00,,0819.6,5.01,0.00,28.4,27.6,00.0,37.4,30.2,09.3,0000.9,0010.39,0032.32,0008.39
2022-04-17 02:22:00,,0819.7,5.00,0.00,28.4,27.6,00.0,37.4,30.2,09.3,0000.4,0010.46,0032.06,0008.39
2022-04-17 02:23:00,,0819.7,4.99,0.00,28.4,27.6,00.0,37.4,30.2,09.3,0000.3,0010.65,0032.15,0008.42
2022-04-17 02:24:00,,0819.7,5.00,0.00,28.4,27.6,00.0,37.4,30.2,09.2,0000.5,0010.72,0032.33,0008.43
2022-04-17 02:25:00,,0819.7,5.01,0.00,28.4,27.5,00.0,37.4,30.2,09.2,0001.1,0010.63,0032.91,0008.44
2022-04-17 02:26:00,,0819.7,5.00,0.00,28.4,27.5,00.0,37.4,30.2,09.2,0001.9,0010.66,0032.70,0008.46
2022-04-17 02:27:00,,0819.6,4.98,0.00,28.4,27.5,00.0,37.4,30.2,09.3,0001.3,0010.73,0032.69,0008.48
2022-04-17 02:28:00,,0819.5,5.00,0.00,28.4,27.5,00.0,37.3,30.2,09.3,0001.6,0010.70,0032.16,0008.50
2022-04-17 02:29:00,,0819.5,5.01,0.00,28.4,27.5,00.0,37.3,30.1,09.3,0002.8,0010.65,0030.72,0008.52
2022-04-17 02:30:00,,0819.5,4.99,0.00,28.4,27.5,00.0,37.3,30.1,09.4,0002.2,0010.63,0028.83,0008.50
2022-04-17 02:31:00,,0819.5,5.00,0.00,28.4,27.5,00.0,37.3,30.1,09.5,0002.4,0010.66,0030.01,0008.50
2022-04-17 02:32:00,,0819.4,5.00,0.00,28.4,27.5,00.0,37.3,30.1,09.5,0004.1,0010.68,0030.12,0008.49
2022-04-17 02:33:00,,0819.4,5.00,0.00,28.4,27.5,00.0,37.3,30.1,09.4,0005.5,0010.70,0030.59,0008.49
2022-04-17 02:34:00,,0819.4,5.00,0.00,28.4,27.5,00.0,37.3,30.1,09.4,0005.8,0010.54,0031.82,0008.45
2022-04-17 02:35:00,,0819.3,4.99,0.00,28.4,27.5,00.0,37.3,30.1,09.4,0005.4,0010.40,0032.29,0008.44
2022-04-17 02:36:00,,0819.2,5.00,0.00,28.4,27.5,00.0,37.3,30.1,09.4,0005.0,0010.47,0031.93,0008.46
2022-04-17 02:37:00,,0819.2,5.00,0.00,28.3,27.5,00.0,37.3,30.1,09.5,0004.9,0010.52,0030.76,0008.48
2022-04-17 02:38:00,,0819.2,5.01,0.00,28.3,27.5,00.0,37.3,30.1,09.5,0006.0,0010.54,0030.06,0008.48
2022-04-17 02:39:00,,0819.2,5.00,0.00,28.3,27.5,00.0,37.3,30.1,09.5,0004.8,0010.59,0030.16,0008.47
2022-04-17 02:40:00,,0819.2,4.99,0.00,28.3,27.5,00.0,37.3,30.1,09.6,0003.8,0010.57,0029.43,0008.42
2022-04-17 02:41:00,,0819.3,5.00,0.00,28.3,27.5,00.0,37.3,30.1,09.5,0003.7,0010.50,0029.58,0008.38
2022-04-17 02:42:00,,0819.1,5.01,0.00,28.3,27.5,00.0,37.3,30.1,09.5,0003.0,0010.42,0028.46,0008.34
2022-04-17 02:43:00,,0819.1,5.01,0.00,28.3,27.5,00.0,37.3,30.1,09.5,0002.2,0010.37,0029.28,0008.31
2022-04-17 02:44:00,,0819.1,5.00,0.00,28.3,27.5,00.0,37.3,30.1,09.5,-000.0,0010.36,0029.16,0008.30
2022-04-17 02:45:00,,0819.2,4.99,0.00,28.3,27.5,00.0,37.3,30.1,09.5,-000.5,0010.40,0028.72,0008.29
2022-04-17 02:46:00,,0819.2,4.99,0.00,28.3,27.5,00.0,37.3,30.1,09.6,-001.0,0010.45,0027.37,0008.25
2022-04-17 02:47:00,,0819.3,5.00,0.00,28.3,27.5,00.0,37.2,30.1,09.5,-000.9,0010.38,0027.18,0008.17
2022-04-17 02:48:00,,0819.3,5.00,0.00,28.3,27.5,00.0,37.2,30.1,09.5,-000.5,0010.33,0026.97,0008.12
2022-04-17 02:49:00,,0819.3,4.99,0.00,28.3,27.4,00.0,37.2,30.1,09.7,-000.1,0010.29,0027.83,0008.08
2022-04-17 02:50:00,,0819.2,5.02,0.00,28.3,27.4,00.0,37.2,30.1,09.9,0000.3,0010.13,0028.03,0007.98
2022-04-17 02:51:00,,0819.2,5.01,0.00,28.3,27.4,00.0,37.2,30.0,09.9,-000.5,0010.06,0028.86,0007.92
2022-04-17 02:52:00,,0819.2,4.99,0.00,28.3,27.4,00.0,37.2,30.0,10.0,-000.3,0009.96,0028.98,0007.86
2022-04-17 02:53:00,,0819.2,4.99,0.00,28.3,27.4,00.0,37.2,30.0,10.1,0000.5,0009.89,0027.96,0007.78
2022-04-17 02:54:00,,0819.3,5.01,0.00,28.3,27.4,00.0,37.2,30.0,10.1,0005.3,0009.73,0026.75,0007.69
2022-04-17 02:55:00,,0819.3,5.01,0.00,28.3,27.4,00.0,37.2,30.0,10.1,0008.4,0009.60,0025.47,0007.58
2022-04-17 02:56:00,,0819.4,5.01,0.00,28.2,27.4,00.0,37.2,30.0,10.2,0007.9,0009.45,0024.30,0007.45
2022-04-17 02:57:00,,0819.4,4.99,0.00,28.2,27.4,00.0,37.2,30.0,10.2,0007.5,0009.30,0024.78,0007.35
2022-04-17 02:58:00,,0819.4,5.00,0.00,28.2,27.4,00.0,37.2,30.0,10.2,0007.3,0009.23,0024.96,0007.29
2022-04-17 02:59:00,,0819.4,4.98,0.00,28.2,27.3,00.0,37.2,30.0,10.2,0006.9,0009.16,0025.74,0007.22
